DAL390 KATL-KDTW

Flight info

Callsign DAL390
Flight time 1h 25m
Altitude 37000
Route PADGT2 SMTTH Q67 HNN SUBWY CRAKN2
Aircraft A321/M-SDE3FGHIRWY/LB1

Departure

Time 2026-05-07 00:44
Airport Hartsfield Jackson Atlanta International Airport (KATL)

Arrival

Time 2026-05-07 02:10
Airport Detroit Metropolitan Wayne County Airport (KDTW)
Time Latitude Longitude Altitude Speed Heading
2026-05-07 00:15 33.64250 -84.43975 1008 ft 0 kts 89°
2026-05-07 00:15 33.64250 -84.43970 1007 ft 0 kts 89°
2026-05-07 00:30 33.64250 -84.43985 1006 ft 4 kts 89°
2026-05-07 00:30 33.64247 -84.44016 1006 ft 4 kts 70°
2026-05-07 00:30 33.64234 -84.44042 1006 ft 4 kts 32°
2026-05-07 00:30 33.64216 -84.44050 1006 ft 1 kts
2026-05-07 00:31 33.64213 -84.44050 1006 ft 0 kts
2026-05-07 00:35 33.64216 -84.44050 1006 ft 3 kts
2026-05-07 00:36 33.64319 -84.44050 1006 ft 20 kts 360°
2026-05-07 00:36 33.64424 -84.43986 1006 ft 17 kts 72°
2026-05-07 00:36 33.64444 -84.43849 1006 ft 16 kts 81°
2026-05-07 00:36 33.64457 -84.43719 1006 ft 15 kts 86°
2026-05-07 00:37 33.64459 -84.43599 1006 ft 14 kts 91°
2026-05-07 00:37 33.64459 -84.43482 1006 ft 16 kts 89°
2026-05-07 00:37 33.64461 -84.43320 1007 ft 23 kts 91°
2026-05-07 00:37 33.64460 -84.43107 1007 ft 28 kts 90°
2026-05-07 00:38 33.64459 -84.42879 1006 ft 27 kts 90°
2026-05-07 00:38 33.64468 -84.42662 1006 ft 26 kts 91°
2026-05-07 00:38 33.64465 -84.42465 1006 ft 22 kts 96°
2026-05-07 00:38 33.64469 -84.42331 1006 ft 15 kts 88°
2026-05-07 00:39 33.64497 -84.42213 1006 ft 18 kts 59°
2026-05-07 00:39 33.64543 -84.42054 1006 ft 21 kts 91°
2026-05-07 00:39 33.64543 -84.41883 1006 ft 20 kts 89°
2026-05-07 00:39 33.64543 -84.41723 1007 ft 18 kts 88°
2026-05-07 00:40 33.64544 -84.41632 1007 ft 9 kts 94°
2026-05-07 00:40 33.64544 -84.41582 1007 ft 1 kts 84°
2026-05-07 00:40 33.64544 -84.41580 1007 ft 2 kts 80°
2026-05-07 00:40 33.64545 -84.41573 1007 ft 0 kts 86°
2026-05-07 00:41 33.64544 -84.41469 1007 ft 34 kts 90°
2026-05-07 00:41 33.64542 -84.41102 1007 ft 47 kts 91°
2026-05-07 00:41 33.64548 -84.40834 1006 ft 25 kts 77°
2026-05-07 00:41 33.64570 -84.40698 1006 ft 10 kts 88°
2026-05-07 00:42 33.64571 -84.40622 1006 ft 0 kts 88°
2026-05-07 00:43 33.64572 -84.40617 1005 ft 4 kts 82°
2026-05-07 00:43 33.64670 -84.40580 1004 ft 20 kts 333°
2026-05-07 00:43 33.64684 -84.40656 1004 ft 7 kts 261°
2026-05-07 00:44 33.64680 -84.40774 1005 ft 39 kts 270°
2026-05-07 00:44 33.64679 -84.41460 1010 ft 123 kts 269°
2026-05-07 00:44 33.64682 -84.42731 1274 ft 165 kts 266°
2026-05-07 00:44 33.64764 -84.44116 2126 ft 164 kts 275°
2026-05-07 00:45 33.65127 -84.45401 2739 ft 166 kts 283°
2026-05-07 00:45 33.65560 -84.46740 2986 ft 185 kts 284°
2026-05-07 00:45 33.66045 -84.48264 3125 ft 206 kts 284°
2026-05-07 00:45 33.66589 -84.49965 3257 ft 231 kts 285°
2026-05-07 00:46 33.67203 -84.51849 3551 ft 253 kts 286°
2026-05-07 00:46 33.67856 -84.53843 4295 ft 259 kts 287°
2026-05-07 00:46 33.68677 -84.55787 5160 ft 267 kts 302°
2026-05-07 00:46 33.70067 -84.57311 6020 ft 278 kts 323°
2026-05-07 00:47 33.71918 -84.58120 6852 ft 291 kts 347°
2026-05-07 00:47 33.73971 -84.58186 7650 ft 297 kts 354°
2026-05-07 00:47 33.76044 -84.58158 8433 ft 299 kts 354°
2026-05-07 00:47 33.78131 -84.58126 9190 ft 302 kts 354°
2026-05-07 00:48 33.80250 -84.58088 9774 ft 308 kts 356°
2026-05-07 00:48 33.82386 -84.57650 9922 ft 316 kts 11°
2026-05-07 00:48 33.84561 -84.56838 9978 ft 336 kts 12°
2026-05-07 00:48 33.86800 -84.56003 10052 ft 339 kts 11°
2026-05-07 00:49 33.89120 -84.55146 10290 ft 358 kts 12°
2026-05-07 00:49 33.91526 -84.54256 10839 ft 365 kts 12°
2026-05-07 00:49 33.93979 -84.53346 11465 ft 369 kts 12°
2026-05-07 00:49 33.96441 -84.52439 12080 ft 373 kts 11°
2026-05-07 00:50 33.98829 -84.51564 12709 ft 376 kts 11°
2026-05-07 00:50 34.01199 -84.50691 13310 ft 380 kts 12°
2026-05-07 00:50 34.03737 -84.49751 13940 ft 383 kts 12°
2026-05-07 00:50 34.06266 -84.48810 14508 ft 386 kts 11°
2026-05-07 00:51 34.08844 -84.47856 15111 ft 388 kts 11°
2026-05-07 00:51 34.11438 -84.46895 15718 ft 391 kts
2026-05-07 00:51 34.14050 -84.45932 16315 ft 394 kts
2026-05-07 00:51 34.16683 -84.44961 16956 ft 396 kts
2026-05-07 00:52 34.19325 -84.43988 17582 ft 398 kts
2026-05-07 00:52 34.21979 -84.43009 18202 ft 400 kts
2026-05-07 00:52 34.24655 -84.42014 18710 ft 403 kts
2026-05-07 00:52 34.27341 -84.41011 19205 ft 406 kts
2026-05-07 00:53 34.30054 -84.40044 19684 ft 404 kts
2026-05-07 00:53 34.32798 -84.39360 20157 ft 404 kts
2026-05-07 00:53 34.35573 -84.38693 20628 ft 407 kts
2026-05-07 00:53 34.38329 -84.38038 21034 ft 411 kts
2026-05-07 00:54 34.41154 -84.37367 21378 ft 414 kts
2026-05-07 00:54 34.43985 -84.36692 21826 ft 417 kts
2026-05-07 00:54 34.46837 -84.36007 22280 ft 419 kts
2026-05-07 00:54 34.49710 -84.35313 22744 ft 422 kts
2026-05-07 00:55 34.52603 -84.34612 23231 ft 424 kts
2026-05-07 00:55 34.55499 -84.33912 23645 ft 426 kts
2026-05-07 00:55 34.58416 -84.33208 23997 ft 428 kts
2026-05-07 00:55 34.61351 -84.32500 24371 ft 432 kts
2026-05-07 00:56 34.64335 -84.31785 24520 ft 441 kts
2026-05-07 00:56 34.67365 -84.31056 24818 ft 446 kts
2026-05-07 00:56 34.70425 -84.30313 25177 ft 449 kts
2026-05-07 00:56 34.73496 -84.29562 25533 ft 452 kts
2026-05-07 00:57 34.76587 -84.28804 25887 ft 454 kts
2026-05-07 00:57 34.79690 -84.28045 26306 ft 454 kts
2026-05-07 00:57 34.82790 -84.27288 26728 ft 455 kts
2026-05-07 00:57 34.85855 -84.26542 27146 ft 456 kts
2026-05-07 00:58 34.88972 -84.25785 27478 ft 459 kts
2026-05-07 00:58 34.92115 -84.25020 27803 ft 461 kts
2026-05-07 00:58 34.95271 -84.24250 28131 ft 464 kts
2026-05-07 00:58 34.98439 -84.23474 28441 ft 466 kts
2026-05-07 00:59 35.04832 -84.21906 29073 ft 471 kts
2026-05-07 00:59 35.08053 -84.21121 29358 ft 473 kts
2026-05-07 00:59 35.11287 -84.20332 29653 ft 475 kts
2026-05-07 01:00 35.14546 -84.19533 29847 ft 480 kts
2026-05-07 01:00 35.17829 -84.18726 30090 ft 483 kts
2026-05-07 01:00 35.21136 -84.17913 30320 ft 485 kts
2026-05-07 01:00 35.24454 -84.17095 30569 ft 488 kts
2026-05-07 01:01 35.27793 -84.16275 30816 ft 490 kts
2026-05-07 01:01 35.31144 -84.15452 31060 ft 492 kts
2026-05-07 01:01 35.34495 -84.14626 31384 ft 492 kts
2026-05-07 01:01 35.37857 -84.13794 31742 ft 493 kts 360°
2026-05-07 01:02 35.41222 -84.12967 31959 ft 495 kts 360°
2026-05-07 01:02 35.44607 -84.12136 32257 ft 496 kts 360°
2026-05-07 01:02 35.47992 -84.11297 32601 ft 496 kts 359°
2026-05-07 01:02 35.51378 -84.10450 32953 ft 496 kts 359°
2026-05-07 01:03 35.54756 -84.09607 33302 ft 495 kts 359°
2026-05-07 01:03 35.58091 -84.08778 33639 ft 495 kts 359°
2026-05-07 01:03 35.61463 -84.07943 34013 ft 495 kts 358°
2026-05-07 01:03 35.64845 -84.07108 34254 ft 496 kts 358°
2026-05-07 01:04 35.68230 -84.06269 34546 ft 495 kts 358°
2026-05-07 01:04 35.71596 -84.05430 34881 ft 494 kts 358°
2026-05-07 01:04 35.74941 -84.04594 35218 ft 492 kts 358°
2026-05-07 01:04 35.78293 -84.03757 35561 ft 490 kts 357°
2026-05-07 01:05 35.81626 -84.02923 35902 ft 488 kts 357°
2026-05-07 01:05 35.84949 -84.02091 36235 ft 486 kts 357°
2026-05-07 01:05 35.88261 -84.01250 36602 ft 487 kts 359°
2026-05-07 01:05 35.91549 -83.99991 36900 ft 505 kts
2026-05-07 01:06 35.94761 -83.98044 37007 ft 520 kts 17°
2026-05-07 01:06 36.01008 -83.93567 36961 ft 518 kts 18°
2026-05-07 01:07 36.07225 -83.89079 36961 ft 515 kts 17°
2026-05-07 01:07 36.13383 -83.84668 36956 ft 515 kts 17°
2026-05-07 01:08 36.19595 -83.80245 36966 ft 516 kts 17°
2026-05-07 01:08 36.25813 -83.75801 36967 ft 516 kts 17°
2026-05-07 01:09 36.32031 -83.71331 36979 ft 517 kts 17°
2026-05-07 01:09 36.38263 -83.66831 36974 ft 519 kts 17°
2026-05-07 01:10 36.44500 -83.62316 36979 ft 519 kts 17°
2026-05-07 01:10 36.50746 -83.57797 36965 ft 520 kts 17°
2026-05-07 01:11 36.56969 -83.53292 36963 ft 520 kts 17°
2026-05-07 01:11 36.63221 -83.48761 37010 ft 520 kts 17°
2026-05-07 01:12 36.69471 -83.44207 36996 ft 520 kts 17°
2026-05-07 01:12 36.75687 -83.39675 36994 ft 520 kts 17°
2026-05-07 01:13 36.81936 -83.35109 37040 ft 521 kts 16°
2026-05-07 01:13 36.88201 -83.30516 36989 ft 521 kts 16°
2026-05-07 01:14 36.94450 -83.25911 36985 ft 522 kts 17°
2026-05-07 01:14 37.00717 -83.21286 36995 ft 522 kts 17°
2026-05-07 01:15 37.06966 -83.16665 37005 ft 521 kts 16°
2026-05-07 01:15 37.13193 -83.12057 36992 ft 520 kts 16°
2026-05-07 01:16 37.19387 -83.07471 37003 ft 519 kts 16°
2026-05-07 01:16 37.25607 -83.02859 37011 ft 519 kts 15°
2026-05-07 01:17 37.31891 -82.98522 37058 ft 512 kts 12°
2026-05-07 01:17 37.38238 -82.94485 37036 ft 510 kts 11°
2026-05-07 01:18 37.44585 -82.90457 37022 ft 512 kts 12°
2026-05-07 01:18 37.50918 -82.86300 37082 ft 514 kts 13°
2026-05-07 01:19 37.57242 -82.82076 36998 ft 513 kts 13°
2026-05-07 01:19 37.63561 -82.77869 36972 ft 513 kts 13°
2026-05-07 01:20 37.69858 -82.73730 37006 ft 514 kts 13°
2026-05-07 01:20 37.76190 -82.69550 37051 ft 514 kts 13°
2026-05-07 01:21 37.82536 -82.65331 37040 ft 514 kts 13°
2026-05-07 01:21 37.87787 -82.61823 37038 ft 514 kts 13°
2026-05-07 01:22 37.94121 -82.57596 37011 ft 514 kts 13°
2026-05-07 01:22 38.00430 -82.53370 36961 ft 508 kts 12°
2026-05-07 01:23 38.06661 -82.49193 36957 ft 506 kts 12°
2026-05-07 01:23 38.12896 -82.45032 36964 ft 507 kts 12°
2026-05-07 01:24 38.19141 -82.40848 36969 ft 508 kts 12°
2026-05-07 01:24 38.25404 -82.36627 36976 ft 511 kts 13°
2026-05-07 01:25 38.31655 -82.32409 36997 ft 513 kts 13°
2026-05-07 01:25 38.37954 -82.28139 36996 ft 513 kts 13°
2026-05-07 01:26 38.44235 -82.23872 36939 ft 506 kts 12°
2026-05-07 01:26 38.50410 -82.19665 36953 ft 502 kts 12°
2026-05-07 01:27 38.56591 -82.15476 36956 ft 504 kts 12°
2026-05-07 01:27 38.62800 -82.11248 37015 ft 505 kts 12°
2026-05-07 01:28 38.69005 -82.07011 36965 ft 506 kts 11°
2026-05-07 01:28 38.72165 -82.05199 36963 ft 486 kts
2026-05-07 01:28 38.75351 -82.04059 36961 ft 463 kts 352°
2026-05-07 01:28 38.78466 -82.03549 36958 ft 441 kts 343°
2026-05-07 01:29 38.81471 -82.03583 36959 ft 422 kts 335°
2026-05-07 01:29 38.87167 -82.04473 37004 ft 415 kts 332°
2026-05-07 01:30 38.92881 -82.05381 36984 ft 417 kts 333°
2026-05-07 01:30 38.98657 -82.06276 36983 ft 418 kts 333°
2026-05-07 01:31 39.04448 -82.07182 36987 ft 418 kts 333°
2026-05-07 01:31 39.10238 -82.08101 37036 ft 419 kts 332°
2026-05-07 01:32 39.16029 -82.09018 37014 ft 419 kts 332°
2026-05-07 01:32 39.21825 -82.09938 37007 ft 420 kts 332°
2026-05-07 01:33 39.27627 -82.10858 37007 ft 420 kts 332°
2026-05-07 01:33 39.33386 -82.11778 37021 ft 420 kts 332°
2026-05-07 01:34 39.39174 -82.12701 36996 ft 419 kts 332°
2026-05-07 01:34 39.44963 -82.13626 36995 ft 419 kts 332°
2026-05-07 01:35 39.50752 -82.14557 36997 ft 420 kts 332°
2026-05-07 01:35 39.56556 -82.15486 37024 ft 420 kts 332°
2026-05-07 01:36 39.62345 -82.16404 37020 ft 419 kts 332°
2026-05-07 01:36 39.68123 -82.17335 37015 ft 419 kts 332°
2026-05-07 01:37 39.73973 -82.18312 36692 ft 435 kts 332°
2026-05-07 01:37 39.77010 -82.18836 36508 ft 444 kts 333°
2026-05-07 01:37 39.80091 -82.19347 36260 ft 447 kts 333°
2026-05-07 01:37 39.83183 -82.19836 36009 ft 448 kts 333°
2026-05-07 01:38 39.86280 -82.20312 35766 ft 448 kts 333°
2026-05-07 01:38 39.89367 -82.20787 35519 ft 446 kts 333°
2026-05-07 01:38 39.92409 -82.21262 35279 ft 444 kts 333°
2026-05-07 01:38 39.95472 -82.21749 35041 ft 443 kts 333°
2026-05-07 01:39 39.98528 -82.22245 34806 ft 441 kts 333°
2026-05-07 01:39 40.01571 -82.22743 34628 ft 440 kts 333°
2026-05-07 01:39 40.04603 -82.23238 34395 ft 439 kts 333°
2026-05-07 01:39 40.07636 -82.23734 34164 ft 438 kts 333°
2026-05-07 01:40 40.10653 -82.24230 33926 ft 437 kts 333°
2026-05-07 01:40 40.13661 -82.24725 33653 ft 435 kts 333°
2026-05-07 01:40 40.16662 -82.25219 33392 ft 433 kts 333°
2026-05-07 01:40 40.19609 -82.25700 33133 ft 432 kts 333°
2026-05-07 01:41 40.22562 -82.26180 32939 ft 431 kts 333°
2026-05-07 01:41 40.25532 -82.26664 32682 ft 429 kts 333°
2026-05-07 01:41 40.28475 -82.27146 32203 ft 430 kts 333°
2026-05-07 01:41 40.31436 -82.27636 31580 ft 429 kts 333°
2026-05-07 01:42 40.34392 -82.28124 30975 ft 428 kts 333°
2026-05-07 01:42 40.37346 -82.28608 30381 ft 427 kts 333°
2026-05-07 01:42 40.40230 -82.29073 30085 ft 419 kts 333°
2026-05-07 01:42 40.43106 -82.29532 29983 ft 415 kts 333°
2026-05-07 01:43 40.45979 -82.30004 29861 ft 416 kts 333°
2026-05-07 01:43 40.48815 -82.30534 29585 ft 404 kts 329°
2026-05-07 01:43 40.51457 -82.31453 29311 ft 385 kts 322°
2026-05-07 01:43 40.54009 -82.32525 29031 ft 384 kts 323°
2026-05-07 01:44 40.56553 -82.33594 28755 ft 383 kts 323°
2026-05-07 01:44 40.59070 -82.34650 28507 ft 382 kts 323°
2026-05-07 01:44 40.61610 -82.35714 28235 ft 381 kts 323°
2026-05-07 01:44 40.64123 -82.36765 27968 ft 380 kts 323°
2026-05-07 01:45 40.66642 -82.37816 27784 ft 379 kts 323°
2026-05-07 01:45 40.69123 -82.38852 27524 ft 378 kts 323°
2026-05-07 01:45 40.71622 -82.39896 27287 ft 377 kts 323°
2026-05-07 01:45 40.74120 -82.40939 27042 ft 375 kts 323°
2026-05-07 01:46 40.76606 -82.41979 26791 ft 374 kts 323°
2026-05-07 01:46 40.79081 -82.43016 26540 ft 373 kts 323°
2026-05-07 01:46 40.81513 -82.44039 26296 ft 372 kts 323°
2026-05-07 01:46 40.83971 -82.45075 26047 ft 368 kts 323°
2026-05-07 01:47 40.86379 -82.46075 25797 ft 358 kts 323°
2026-05-07 01:47 40.88725 -82.47043 25590 ft 348 kts 323°
2026-05-07 01:47 40.91008 -82.47987 25345 ft 339 kts 323°
2026-05-07 01:47 40.93228 -82.48912 25118 ft 331 kts 322°
2026-05-07 01:48 40.95396 -82.49823 24880 ft 322 kts 322°
2026-05-07 01:48 40.97510 -82.50717 24625 ft 315 kts 322°
2026-05-07 01:48 40.99579 -82.51597 24395 ft 312 kts 322°
2026-05-07 01:48 41.01710 -82.52556 24174 ft 337 kts 322°
2026-05-07 01:49 41.03990 -82.53600 23950 ft 353 kts 323°
2026-05-07 01:49 41.06341 -82.54624 24008 ft 359 kts 324°
2026-05-07 01:49 41.08733 -82.55633 23975 ft 362 kts 325°
2026-05-07 01:49 41.11130 -82.56648 23801 ft 360 kts 326°
2026-05-07 01:50 41.13512 -82.57674 23579 ft 359 kts 325°
2026-05-07 01:50 41.15881 -82.58707 23297 ft 358 kts 325°
2026-05-07 01:50 41.18231 -82.59742 23025 ft 357 kts 325°
2026-05-07 01:50 41.20582 -82.60785 22754 ft 356 kts 325°
2026-05-07 01:51 41.22924 -82.61832 22484 ft 354 kts 325°
2026-05-07 01:51 41.25256 -82.62878 22219 ft 353 kts 326°
2026-05-07 01:51 41.27584 -82.63920 21956 ft 353 kts 326°
2026-05-07 01:51 41.29830 -82.65103 21690 ft 338 kts 317°
2026-05-07 01:52 41.31843 -82.66627 21434 ft 332 kts 315°
2026-05-07 01:52 41.33825 -82.68152 21113 ft 326 kts 316°
2026-05-07 01:52 41.35759 -82.69636 20662 ft 324 kts 316°
2026-05-07 01:52 41.37704 -82.71130 20212 ft 321 kts 316°
2026-05-07 01:53 41.39627 -82.72613 19762 ft 318 kts 316°
2026-05-07 01:53 41.41534 -82.74087 19349 ft 316 kts 317°
2026-05-07 01:53 41.43430 -82.75552 18918 ft 314 kts 317°
2026-05-07 01:53 41.45318 -82.77010 18491 ft 313 kts 317°
2026-05-07 01:54 41.47192 -82.78460 18062 ft 311 kts 319°
2026-05-07 01:54 41.49051 -82.79896 17604 ft 309 kts 319°
2026-05-07 01:54 41.50904 -82.81325 17194 ft 305 kts 320°
2026-05-07 01:54 41.52733 -82.82737 16798 ft 303 kts 320°
2026-05-07 01:55 41.54547 -82.84141 16400 ft 300 kts 320°
2026-05-07 01:55 41.56343 -82.85532 16025 ft 298 kts 320°
2026-05-07 01:55 41.58134 -82.86923 15624 ft 296 kts 321°
2026-05-07 01:55 41.59910 -82.88300 15235 ft 294 kts 321°
2026-05-07 01:56 41.61678 -82.89669 14854 ft 293 kts 321°
2026-05-07 01:56 41.63434 -82.91034 14474 ft 291 kts 321°
2026-05-07 01:56 41.65156 -82.92376 14108 ft 290 kts 322°
2026-05-07 01:56 41.66897 -82.93735 13702 ft 289 kts 322°
2026-05-07 01:57 41.68529 -82.95251 13280 ft 284 kts 317°
2026-05-07 01:57 41.70121 -82.96814 12885 ft 282 kts 317°
2026-05-07 01:57 41.71704 -82.98363 12488 ft 281 kts 317°
2026-05-07 01:57 41.73280 -82.99906 12094 ft 280 kts 318°
2026-05-07 01:58 41.74847 -83.01442 11686 ft 278 kts 318°
2026-05-07 01:58 41.76404 -83.02965 11305 ft 277 kts 319°
2026-05-07 01:58 41.77955 -83.04486 10936 ft 276 kts 318°
2026-05-07 01:58 41.79495 -83.06010 10531 ft 274 kts 317°
2026-05-07 01:59 41.80794 -83.07823 10138 ft 267 kts 301°
2026-05-07 01:59 41.81625 -83.09999 9794 ft 260 kts 287°
2026-05-07 01:59 41.81977 -83.12356 9484 ft 257 kts 275°
2026-05-07 01:59 41.82172 -83.14733 9180 ft 256 kts 276°
2026-05-07 02:00 41.82372 -83.17109 8890 ft 256 kts 276°
2026-05-07 02:00 41.82575 -83.19481 8599 ft 256 kts 276°
2026-05-07 02:00 41.82777 -83.21842 8307 ft 256 kts 276°
2026-05-07 02:00 41.82980 -83.24211 8000 ft 255 kts 276°
2026-05-07 02:01 41.83181 -83.26572 7708 ft 255 kts 276°
2026-05-07 02:01 41.83379 -83.28922 7440 ft 253 kts 276°
2026-05-07 02:01 41.83570 -83.31185 7348 ft 239 kts 276°
2026-05-07 02:01 41.83755 -83.33372 7264 ft 227 kts 276°
2026-05-07 02:02 41.83929 -83.35418 7169 ft 217 kts 276°
2026-05-07 02:02 41.84098 -83.37420 7080 ft 215 kts 276°
2026-05-07 02:02 41.84356 -83.39364 6956 ft 221 kts 292°
2026-05-07 02:02 41.85385 -83.40872 6692 ft 228 kts 332°
2026-05-07 02:03 41.86948 -83.41345 6453 ft 235 kts 357°
2026-05-07 02:03 41.88580 -83.41245 6364 ft 237 kts 359°
2026-05-07 02:03 41.90224 -83.41138 6293 ft 238 kts 359°
2026-05-07 02:03 41.91879 -83.41033 6079 ft 238 kts 359°
2026-05-07 02:04 41.93527 -83.40927 5789 ft 236 kts 359°
2026-05-07 02:04 41.95165 -83.40820 5478 ft 235 kts 359°
2026-05-07 02:04 41.96797 -83.40714 5177 ft 234 kts 359°
2026-05-07 02:04 41.98380 -83.40612 4880 ft 233 kts 359°
2026-05-07 02:05 42.00001 -83.40507 4569 ft 232 kts 359°
2026-05-07 02:05 42.01607 -83.40402 4301 ft 230 kts 359°
2026-05-07 02:05 42.03190 -83.40297 3970 ft 226 kts 359°
2026-05-07 02:05 42.04742 -83.40192 3663 ft 221 kts 359°
2026-05-07 02:06 42.06229 -83.40092 3384 ft 213 kts 359°
2026-05-07 02:06 42.07643 -83.40000 3131 ft 198 kts 359°
2026-05-07 02:06 42.08944 -83.39911 2893 ft 174 kts 358°
2026-05-07 02:06 42.10070 -83.39834 2657 ft 152 kts 357°
2026-05-07 02:07 42.11098 -83.39777 2465 ft 144 kts 357°
2026-05-07 02:07 42.13068 -83.39651 2088 ft 142 kts
2026-05-07 02:07 42.14003 -83.39217 1928 ft 145 kts 23°
2026-05-07 02:08 42.14894 -83.38594 1748 ft 145 kts 23°
2026-05-07 02:08 42.15784 -83.37950 1532 ft 145 kts 25°
2026-05-07 02:08 42.16369 -83.37530 1407 ft 144 kts 25°
2026-05-07 02:08 42.17244 -83.36854 1281 ft 145 kts 26°
2026-05-07 02:09 42.18427 -83.36035 1047 ft 144 kts 29°
2026-05-07 02:09 42.19016 -83.35591 899 ft 142 kts 33°
2026-05-07 02:09 42.20144 -83.34758 659 ft 132 kts 32°
2026-05-07 02:09 42.20646 -83.34381 650 ft 110 kts 28°
2026-05-07 02:10 42.21198 -83.33975 651 ft 76 kts 27°
2026-05-07 02:10 42.21539 -83.33726 649 ft 42 kts 30°
2026-05-07 02:10 42.21765 -83.33560 649 ft 29 kts 24°
2026-05-07 02:10 42.21850 -83.33635 648 ft 13 kts 280°
2026-05-07 02:11 42.21850 -83.33738 648 ft 9 kts 270°
2026-05-07 02:11 42.21850 -83.33812 649 ft 8 kts 269°
2026-05-07 02:11 42.21846 -83.33939 649 ft 20 kts 267°
2026-05-07 02:11 42.21843 -83.34175 649 ft 29 kts 268°
2026-05-07 02:12 42.21839 -83.34430 651 ft 25 kts 267°
2026-05-07 02:12 42.21835 -83.34645 650 ft 22 kts 267°
2026-05-07 02:12 42.21831 -83.34835 650 ft 19 kts 269°
2026-05-07 02:12 42.21831 -83.34994 650 ft 15 kts 270°
2026-05-07 02:13 42.21824 -83.35122 650 ft 12 kts 266°
2026-05-07 02:13 42.21826 -83.35231 649 ft 13 kts 270°
2026-05-07 02:13 42.21876 -83.35331 649 ft 17 kts 348°
2026-05-07 02:13 42.21999 -83.35269 649 ft 21 kts 31°
2026-05-07 02:14 42.22106 -83.35237 649 ft 13 kts 336°
2026-05-07 02:14 42.22179 -83.35264 649 ft 9 kts 26°
2026-05-07 02:14 42.22210 -83.35234 650 ft 0 kts 38°
2026-05-07 02:14 42.22214 -83.35230 649 ft 4 kts 44°
2026-05-07 02:15 42.22223 -83.35209 649 ft 1 kts 59°
2026-05-07 02:15 42.22224 -83.35206 649 ft 0 kts 63°